| time (UTC) | temp F | wind direction | speed knots | gust knots | rain 1hr in | rain 24hr in | rain mn in | humidity % | barometer mb |
| 20260506024437 | 71 | 151 | 0.9 | 1.7 | 0.00 | 0.00 | 0.00 | 54 | 1014.1 |
| 20260506023932 | 71 | 130 | 0.0 | 2.6 | 0.00 | 0.00 | 0.00 | 54 | 1014.1 |
| 20260506023430 | 72 | 135 | 1.7 | 1.7 | 0.00 | 0.00 | 0.00 | 53 | 1014.2 |
| 20260506022926 | 72 | 176 | 0.0 | 1.7 | 0.00 | 0.00 | 0.00 | 53 | 1014.4 |
| 20260506022424 | 71 | 168 | 0.9 | 1.7 | 0.00 | 0.00 | 0.00 | 53 | 1014.4 |
| 20260506021922 | 72 | 100 | 0.9 | 2.6 | 0.00 | 0.00 | 0.00 | 52 | 1014.2 |
| 20260506021419 | 72 | 151 | 0.9 | 1.7 | 0.00 | 0.00 | 0.00 | 52 | 1014.3 |
| 20260506020916 | 72 | 119 | 0.9 | 1.7 | 0.00 | 0.00 | 0.00 | 52 | 1014.2 |
| 20260506020414 | 72 | 132 | 0.9 | 1.7 | 0.00 | 0.00 | 0.00 | 51 | 1014.4 |
| 20260506015910 | 72 | 127 | 0.9 | 1.7 | 0.00 | 0.00 | 0.00 | 51 | 1014.2 |
| 20260506015408 | 72 | 124 | 0.0 | 1.7 | 0.00 | 0.00 | 0.00 | 52 | 1014.0 |
| 20260506014904 | 72 | 148 | 0.9 | 1.7 | 0.00 | 0.00 | 0.00 | 52 | 1014.2 |
| 20260506014401 | 72 | 125 | 0.9 | 1.7 | 0.00 | 0.00 | 0.00 | 51 | 1014.1 |
| 20260506013858 | 73 | 149 | 0.0 | 2.6 | 0.00 | 0.00 | 0.00 | 51 | 1014.2 |
| 20260506013356 | 73 | 141 | 2.6 | 2.6 | 0.00 | 0.00 | 0.00 | 50 | 1013.9 |
| 20260506012852 | 73 | 194 | 0.0 | 1.7 | 0.00 | 0.00 | 0.00 | 50 | 1014.0 |
| 20260506012349 | 73 | 170 | 1.7 | 1.7 | 0.00 | 0.00 | 0.00 | 50 | 1014.0 |
| 20260506011846 | 73 | 128 | 1.7 | 2.6 | 0.00 | 0.00 | 0.00 | 49 | 1013.8 |
| 20260506011343 | 73 | 80 | 0.0 | 1.7 | 0.00 | 0.00 | 0.00 | 49 | 1013.9 |
| 20260506010840 | 73 | 161 | 1.7 | 1.7 | 0.00 | 0.00 | 0.00 | 48 | 1013.7 |
| 20260506010338 | 73 | 90 | 0.9 | 1.7 | 0.00 | 0.00 | 0.00 | 49 | 1013.6 |
| 20260506005835 | 74 | 172 | 1.7 | 1.7 | 0.00 | 0.00 | 0.00 | 48 | 1013.7 |
| 20260506005331 | 74 | 95 | 0.9 | 1.7 | 0.00 | 0.00 | 0.00 | 47 | 1013.5 |
| 20260506004827 | 74 | 163 | 1.7 | 1.7 | 0.00 | 0.00 | 0.00 | 48 | 1013.7 |
| 20260506004325 | 74 | 132 | 0.9 | 1.7 | 0.00 | 0.00 | 0.00 | 47 | 1013.4 |
| 20260506003821 | 74 | 96 | 0.0 | 1.7 | 0.00 | 0.00 | 0.00 | 46 | 1013.5 |
| 20260506003318 | 75 | 117 | 1.7 | 1.7 | 0.00 | 0.00 | 0.00 | 46 | 1013.5 |
| 20260506002814 | 75 | 131 | 0.9 | 1.7 | 0.00 | 0.00 | 0.00 | 46 | 1013.4 |
| 20260506002311 | 75 | 158 | 1.7 | 1.7 | 0.00 | 0.00 | 0.00 | 46 | 1013.3 |
| 20260506001806 | 75 | 158 | 0.0 | 1.7 | 0.00 | 0.00 | 0.00 | 45 | 1013.5 |
| 20260506001304 | 76 | 175 | 0.0 | 2.6 | 0.00 | 0.00 | 0.00 | 45 | 1013.1 |
| 20260506000801 | 76 | 94 | 0.9 | 1.7 | 0.00 | 0.00 | 0.00 | 44 | 1013.1 |
| 20260506000258 | 76 | 166 | 1.7 | 1.7 | 0.00 | 0.00 | 0.00 | 43 | 1013.1 |
| 20260505235755 | 76 | 213 | 0.0 | 1.7 | 0.00 | 0.00 | 0.00 | 42 | 1013.2 |
| 20260505235253 | 77 | 11 | 0.0 | 1.7 | 0.00 | 0.00 | 0.00 | 42 | 1013.0 |
| 20260505234749 | 77 | 110 | 0.9 | 1.7 | 0.00 | 0.00 | 0.00 | 42 | 1013.0 |
| 20260505234247 | 77 | 192 | 0.9 | 2.6 | 0.00 | 0.00 | 0.00 | 42 | 1012.9 |
| 20260505233743 | 77 | 141 | 0.0 | 2.6 | 0.00 | 0.00 | 0.00 | 41 | 1013.1 |
| 20260505233241 | 77 | 166 | 0.0 | 2.6 | 0.00 | 0.00 | 0.00 | 41 | 1013.2 |
| 20260505232738 | 77 | 184 | 0.0 | 1.7 | 0.00 | 0.00 | 0.00 | 40 | 1013.0 |
| 20260505232236 | 77 | 204 | 0.0 | 3.5 | 0.00 | 0.00 | 0.00 | 41 | 1013.2 |
| 20260505231732 | 78 | 144 | 0.9 | 1.7 | 0.00 | 0.00 | 0.00 | 40 | 1013.1 |
| 20260505231231 | 77 | 55 | 0.9 | 2.6 | 0.00 | 0.00 | 0.00 | 38 | 1013.3 |
| 20260505230729 | 77 | 153 | 0.0 | 1.7 | 0.00 | 0.00 | 0.00 | 39 | 1013.0 |
| 20260505230225 | 78 | 179 | 1.7 | 2.6 | 0.00 | 0.00 | 0.00 | 39 | 1013.1 |
| 20260505225722 | 78 | 183 | 1.7 | 1.7 | 0.00 | 0.00 | 0.00 | 37 | 1013.2 |
| 20260505225219 | 79 | 123 | 0.9 | 1.7 | 0.00 | 0.00 | 0.00 | 36 | 1013.2 |
| 20260505224714 | 79 | 249 | 0.0 | 2.6 | 0.00 | 0.00 | 0.00 | 36 | 1013.3 |
| 20260505224212 | 79 | 140 | 1.7 | 2.6 | 0.00 | 0.00 | 0.00 | 35 | 1013.2 |
| 20260505223710 | 79 | 154 | 1.7 | 1.7 | 0.00 | 0.00 | 0.00 | 34 | 1013.3 |
| 20260505223205 | 80 | 247 | 1.7 | 4.3 | 0.00 | 0.00 | 0.00 | 34 | 1013.1 |
| 20260505222701 | 80 | 160 | 2.6 | 2.6 | 0.00 | 0.00 | 0.00 | 33 | 1013.4 |
| 20260505222158 | 81 | 239 | 2.6 | 4.3 | 0.00 | 0.00 | 0.00 | 33 | 1013.2 |
| 20260505221655 | 81 | 250 | 0.0 | 4.3 | 0.00 | 0.00 | 0.00 | 33 | 1013.5 |
| 20260505221152 | 81 | 172 | 0.0 | 1.7 | 0.00 | 0.00 | 0.00 | 32 | 1013.3 |
| 20260505220649 | 81 | 220 | 3.5 | 3.5 | 0.00 | 0.00 | 0.00 | 32 | 1013.1 |
| 20260505220147 | 81 | 197 | 2.6 | 3.5 | 0.00 | 0.00 | 0.00 | 32 | 1013.1 |
| 20260505215644 | 81 | 67 | 1.7 | 3.5 | 0.00 | 0.00 | 0.00 | 34 | 1013.1 |
| 20260505215142 | 81 | 180 | 0.0 | 3.5 | 0.00 | 0.00 | 0.00 | 33 | 1013.3 |
| 20260505214640 | 81 | 85 | 1.7 | 1.7 | 0.00 | 0.00 | 0.00 | 32 | 1013.0 |
| 20260505214137 | 80 | 109 | 1.7 | 2.6 | 0.00 | 0.00 | 0.00 | 31 | 1013.1 |
| 20260505213634 | 80 | 125 | 0.0 | 4.3 | 0.00 | 0.00 | 0.00 | 33 | 1012.9 |
| 20260505213131 | 80 | 211 | 0.0 | 2.6 | 0.00 | 0.00 | 0.00 | 31 | 1013.3 |
| 20260505212626 | 81 | 142 | 0.9 | 2.6 | 0.00 | 0.00 | 0.00 | 31 | 1012.9 |
| 20260505212125 | 81 | 73 | 1.7 | 3.5 | 0.00 | 0.00 | 0.00 | 32 | 1013.0 |
| 20260505211621 | 81 | 239 | 0.0 | 2.6 | 0.00 | 0.00 | 0.00 | 31 | 1012.9 |
| 20260505211118 | 82 | 266 | 1.7 | 2.6 | 0.00 | 0.00 | 0.00 | 31 | 1013.1 |
| 20260505210615 | 82 | 74 | 1.7 | 2.6 | 0.00 | 0.00 | 0.00 | 30 | 1013.0 |
| 20260505210112 | 82 | 202 | 0.9 | 3.5 | 0.00 | 0.00 | 0.00 | 33 | 1013.1 |
| 20260505205609 | 83 | 158 | 1.7 | 1.7 | 0.00 | 0.00 | 0.00 | 31 | 1012.7 |
| 20260505205107 | 82 | 9 | 0.0 | 2.6 | 0.00 | 0.00 | 0.00 | 30 | 1012.7 |
| 20260505204604 | 82 | 198 | 0.0 | 4.3 | 0.00 | 0.00 | 0.00 | 30 | 1012.9 |
| 20260505204101 | 82 | 78 | 0.0 | 4.3 | 0.00 | 0.00 | 0.00 | 32 | 1012.8 |
| 20260505203558 | 82 | 263 | 0.0 | 2.6 | 0.00 | 0.00 | 0.00 | 31 | 1012.7 |
| 20260505203055 | 82 | 55 | 1.7 | 2.6 | 0.00 | 0.00 | 0.00 | 29 | 1012.7 |
| 20260505202551 | 83 | 69 | 2.6 | 4.3 | 0.00 | 0.00 | 0.00 | 33 | 1012.7 |
| 20260505202047 | 83 | 226 | 0.9 | 2.6 | 0.00 | 0.00 | 0.00 | 30 | 1012.8 |
| 20260505201544 | 84 | 251 | 0.9 | 2.6 | 0.00 | 0.00 | 0.00 | 29 | 1012.9 |
| 20260505201042 | 84 | 155 | 0.9 | 1.7 | 0.00 | 0.00 | 0.00 | 29 | 1012.7 |
| 20260505200539 | 84 | 187 | 0.0 | 1.7 | 0.00 | 0.00 | 0.00 | 29 | 1012.9 |
| 20260505200036 | 84 | 13 | 0.0 | 1.7 | 0.00 | 0.00 | 0.00 | 29 | 1013.0 |
| 20260505195532 | 85 | 133 | 1.7 | 1.7 | 0.00 | 0.00 | 0.00 | 28 | 1013.2 |
| 20260505195030 | 85 | 96 | 0.0 | 3.5 | 0.00 | 0.00 | 0.00 | 28 | 1012.9 |
| 20260505194527 | 85 | 227 | 1.7 | 3.5 | 0.00 | 0.00 | 0.00 | 29 | 1013.2 |
| 20260505194022 | 85 | 83 | 1.7 | 5.2 | 0.00 | 0.00 | 0.00 | 28 | 1013.2 |
| 20260505193520 | 85 | 232 | 1.7 | 3.5 | 0.00 | 0.00 | 0.00 | 29 | 1013.3 |
| 20260505193017 | 85 | 244 | 0.0 | 2.6 | 0.00 | 0.00 | 0.00 | 28 | 1013.2 |
| 20260505192515 | 85 | 167 | 1.7 | 2.6 | 0.00 | 0.00 | 0.00 | 28 | 1013.3 |
| 20260505192012 | 86 | 25 | 0.0 | 2.6 | 0.00 | 0.00 | 0.00 | 29 | 1013.3 |
| 20260505191510 | 86 | 199 | 0.9 | 2.6 | 0.00 | 0.00 | 0.00 | 29 | 1013.5 |
| 20260505191009 | 86 | 152 | 0.0 | 2.6 | 0.00 | 0.00 | 0.00 | 29 | 1013.7 |
| 20260505190503 | 85 | 350 | 1.7 | 3.5 | 0.00 | 0.00 | 0.00 | 29 | 1013.5 |
| 20260505185958 | 85 | 115 | 0.0 | 3.5 | 0.00 | 0.00 | 0.00 | 27 | 1013.6 |
| 20260505185456 | 86 | 5 | 1.7 | 4.3 | 0.00 | 0.00 | 0.00 | 29 | 1013.7 |
| 20260505184952 | 85 | 89 | 0.9 | 2.6 | 0.00 | 0.00 | 0.00 | 28 | 1013.9 |
| 20260505184449 | 85 | 192 | 0.9 | 1.7 | 0.00 | 0.00 | 0.00 | 28 | 1014.1 |
| 20260505183945 | 84 | 186 | 1.7 | 3.5 | 0.00 | 0.00 | 0.00 | 29 | 1013.8 |
| 20260505183442 | 84 | 126 | 2.6 | 4.3 | 0.00 | 0.00 | 0.00 | 30 | 1014.3 |
| 20260505182939 | 83 | 160 | 2.6 | 5.2 | 0.00 | 0.00 | 0.00 | 30 | 1014.1 |
| 20260505182436 | 83 | 264 | 1.7 | 3.5 | 0.00 | 0.00 | 0.00 | 28 | 1014.4 |
| 20260505181932 | 84 | 100 | 0.9 | 3.5 | 0.00 | 0.00 | 0.00 | 28 | 1014.2 |
| 20260505181430 | 84 | 136 | 0.9 | 4.3 | 0.00 | 0.00 | 0.00 | 31 | 1014.5 |
| 20260505180927 | 83 | 272 | 0.0 | 5.2 | 0.00 | 0.00 | 0.00 | 32 | 1014.3 |
| 20260505180423 | 83 | 221 | 0.0 | 5.2 | 0.00 | 0.00 | 0.00 | 31 | 1014.3 |
| 20260505175920 | 83 | 168 | 0.0 | 3.5 | 0.00 | 0.00 | 0.00 | 32 | 1014.6 |
| 20260505175416 | 82 | 104 | 0.0 | 3.5 | 0.00 | 0.00 | 0.00 | 31 | 1014.6 |
| 20260505174912 | 82 | 33 | 0.9 | 3.5 | 0.00 | 0.00 | 0.00 | 31 | 1014.7 |
| 20260505174410 | 82 | 288 | 2.6 | 2.6 | 0.00 | 0.00 | 0.00 | 30 | 1014.9 |
| 20260505173906 | 82 | 195 | 0.0 | 2.6 | 0.00 | 0.00 | 0.00 | 37 | 1014.6 |
| 20260505173402 | 82 | 94 | 1.7 | 3.5 | 0.00 | 0.00 | 0.00 | 34 | 1014.6 |
| 20260505172859 | 82 | 250 | 0.9 | 2.6 | 0.00 | 0.00 | 0.00 | 35 | 1014.9 |
| 20260505172357 | 82 | 77 | 0.9 | 1.7 | 0.00 | 0.00 | 0.00 | 37 | 1014.8 |
| 20260505171857 | 82 | 130 | 1.7 | 3.5 | 0.00 | 0.00 | 0.00 | 39 | 1014.9 |
| 20260505171354 | 82 | 240 | 2.6 | 3.5 | 0.00 | 0.00 | 0.00 | 39 | 1014.9 |
| 20260505170850 | 81 | 184 | 0.0 | 2.6 | 0.00 | 0.00 | 0.00 | 39 | 1015.0 |
| 20260505170348 | 81 | 145 | 1.7 | 3.5 | 0.00 | 0.00 | 0.00 | 37 | 1015.2 |
| 20260505165842 | 80 | 333 | 0.9 | 1.7 | 0.00 | 0.00 | 0.00 | 39 | 1015.2 |
| 20260505165338 | 80 | 143 | 3.5 | 3.5 | 0.00 | 0.00 | 0.00 | 38 | 1015.2 |
| 20260505164834 | 80 | 174 | 0.9 | 3.5 | 0.00 | 0.00 | 0.00 | 39 | 1015.3 |
| 20260505164331 | 80 | 76 | 1.7 | 2.6 | 0.00 | 0.00 | 0.00 | 40 | 1015.4 |
| 20260505163829 | 80 | 165 | 1.7 | 3.5 | 0.00 | 0.00 | 0.00 | 40 | 1015.2 |
| 20260505163328 | 79 | 101 | 0.9 | 3.5 | 0.00 | 0.00 | 0.00 | 42 | 1015.2 |
| 20260505162826 | 79 | 13 | 0.0 | 2.6 | 0.00 | 0.00 | 0.00 | 39 | 1015.6 |
| 20260505162322 | 79 | 349 | 0.0 | 2.6 | 0.00 | 0.00 | 0.00 | 40 | 1015.3 |
| 20260505161819 | 79 | 140 | 0.0 | 1.7 | 0.00 | 0.00 | 0.00 | 42 | 1015.5 |
| 20260505161316 | 79 | 148 | 1.7 | 3.5 | 0.00 | 0.00 | 0.00 | 43 | 1015.7 |
| 20260505160814 | 78 | 170 | 0.9 | 2.6 | 0.00 | 0.00 | 0.00 | 42 | 1015.8 |
| 20260505160311 | 78 | 154 | 1.7 | 2.6 | 0.00 | 0.00 | 0.00 | 41 | 1016.0 |
| 20260505153250 | 77 | 210 | 1.7 | 2.6 | 0.00 | 0.00 | 0.00 | 47 | 1016.3 |
| 20260505152747 | 76 | 148 | 3.5 | 3.5 | 0.00 | 0.00 | 0.00 | 46 | 1016.0 |
| 20260505152243 | 76 | 153 | 1.7 | 3.5 | 0.00 | 0.00 | 0.00 | 48 | 1016.4 |
| 20260505151738 | 75 | 204 | 0.0 | 2.6 | 0.00 | 0.00 | 0.00 | 49 | 1016.3 |
| 20260505151236 | 75 | 162 | 0.9 | 2.6 | 0.00 | 0.00 | 0.00 | 47 | 1016.4 |
| 20260505150732 | 75 | 75 | 1.7 | 2.6 | 0.00 | 0.00 | 0.00 | 48 | 1016.2 |
| 20260505150229 | 75 | 119 | 1.7 | 3.5 | 0.00 | 0.00 | 0.00 | 47 | 1016.2 |
| 20260505140154 | 70 | 142 | 3.5 | 3.5 | 0.00 | 0.00 | 0.00 | 54 | 1016.2 |
| 20260505130118 | 64 | 131 | 2.6 | 2.6 | 0.00 | 0.00 | 0.00 | 66 | 1016.7 |
| 20260505124607 | 63 | 135 | 2.6 | 2.6 | 0.00 | 0.00 | 0.00 | 68 | 1016.8 |
| 20260505124103 | 63 | 144 | 2.6 | 3.5 | 0.00 | 0.00 | 0.00 | 68 | 1016.6 |
| 20260505123600 | 62 | 101 | 1.7 | 2.6 | 0.00 | 0.00 | 0.00 | 70 | 1016.6 |
| 20260505123056 | 62 | 97 | 0.9 | 1.7 | 0.00 | 0.00 | 0.00 | 72 | 1016.5 |
| 20260505122553 | 62 | 155 | 1.7 | 2.6 | 0.00 | 0.00 | 0.00 | 71 | 1016.7 |
| 20260505122050 | 62 | 126 | 0.9 | 2.6 | 0.00 | 0.00 | 0.00 | 71 | 1016.6 |
| 20260505121547 | 61 | 146 | 1.7 | 2.6 | 0.00 | 0.00 | 0.00 | 72 | 1016.6 |
| 20260505121044 | 61 | 169 | 1.7 | 2.6 | 0.00 | 0.00 | 0.00 | 73 | 1016.7 |
| 20260505120540 | 61 | 140 | 1.7 | 2.6 | 0.00 | 0.00 | 0.00 | 73 | 1016.5 |
| 20260505120036 | 61 | 150 | 1.7 | 1.7 | 0.00 | 0.00 | 0.00 | 72 | 1016.5 |
| 20260505115530 | 61 | 105 | 1.7 | 2.6 | 0.00 | 0.00 | 0.00 | 73 | 1016.4 |
| 20260505115028 | 60 | 114 | 1.7 | 2.6 | 0.00 | 0.00 | 0.00 | 74 | 1016.5 |
| 20260505114525 | 59 | 147 | 1.7 | 2.6 | 0.00 | 0.00 | 0.00 | 76 | 1016.4 |
| 20260505114021 | 59 | 111 | 0.9 | 2.6 | 0.00 | 0.00 | 0.00 | 77 | 1016.2 |
| 20260505113518 | 58 | 130 | 1.7 | 2.6 | 0.00 | 0.00 | 0.00 | 78 | 1016.1 |
| 20260505113014 | 58 | 131 | 1.7 | 2.6 | 0.00 | 0.00 | 0.00 | 78 | 1016.0 |
| 20260505112511 | 58 | 139 | 1.7 | 2.6 | 0.00 | 0.00 | 0.00 | 79 | 1016.2 |
| 20260505112009 | 58 | 156 | 1.7 | 2.6 | 0.00 | 0.00 | 0.00 | 78 | 1016.0 |
| 20260505111502 | 58 | 145 | 1.7 | 1.7 | 0.00 | 0.00 | 0.00 | 78 | 1016.1 |
| 20260505110958 | 58 | 148 | 1.7 | 2.6 | 0.00 | 0.00 | 0.00 | 78 | 1015.9 |
| 20260505110449 | 57 | 140 | 1.7 | 2.6 | 0.00 | 0.00 | 0.00 | 78 | 1015.8 |
| 20260505101921 | 57 | 147 | 1.7 | 1.7 | 0.00 | 0.00 | 0.00 | 78 | 1015.4 |
| 20260505101415 | 57 | 129 | 1.7 | 1.7 | 0.00 | 0.00 | 0.00 | 77 | 1015.3 |
| 20260505100911 | 57 | 130 | 0.9 | 1.7 | 0.00 | 0.00 | 0.00 | 78 | 1015.4 |
| 20260505100408 | 58 | 122 | 1.7 | 1.7 | 0.00 | 0.00 | 0.00 | 78 | 1015.5 |
| 20260505095903 | 58 | 136 | 1.7 | 1.7 | 0.00 | 0.00 | 0.00 | 76 | 1015.4 |
| 20260505095401 | 58 | 122 | 1.7 | 1.7 | 0.00 | 0.00 | 0.00 | 76 | 1015.6 |
| 20260505094857 | 58 | 155 | 1.7 | 1.7 | 0.00 | 0.00 | 0.00 | 77 | 1015.4 |
| 20260505094354 | 58 | 139 | 1.7 | 1.7 | 0.00 | 0.00 | 0.00 | 76 | 1015.5 |
| 20260505093849 | 58 | 140 | 1.7 | 1.7 | 0.00 | 0.00 | 0.00 | 76 | 1015.3 |
| 20260505093347 | 59 | 144 | 1.7 | 1.7 | 0.00 | 0.00 | 0.00 | 75 | 1015.5 |
| 20260505092844 | 59 | 149 | 1.7 | 2.6 | 0.00 | 0.00 | 0.00 | 74 | 1015.5 |
| 20260505092342 | 59 | 125 | 1.7 | 1.7 | 0.00 | 0.00 | 0.00 | 74 | 1015.4 |
| 20260505091839 | 59 | 195 | 1.7 | 3.5 | 0.00 | 0.00 | 0.00 | 74 | 1015.3 |
| 20260505091337 | 59 | 149 | 1.7 | 2.6 | 0.00 | 0.00 | 0.00 | 74 | 1015.5 |
| 20260505090835 | 59 | 149 | 1.7 | 2.6 | 0.00 | 0.00 | 0.00 | 74 | 1015.3 |
| 20260505090333 | 59 | 140 | 1.7 | 2.6 | 0.00 | 0.00 | 0.00 | 74 | 1015.3 |
| 20260505085830 | 59 | 142 | 1.7 | 2.6 | 0.00 | 0.00 | 0.00 | 73 | 1015.3 |
| 20260505085328 | 59 | 151 | 1.7 | 2.6 | 0.00 | 0.00 | 0.00 | 73 | 1015.0 |
| 20260505084825 | 59 | 152 | 1.7 | 2.6 | 0.00 | 0.00 | 0.00 | 73 | 1015.2 |
| 20260505084324 | 60 | 145 | 1.7 | 2.6 | 0.00 | 0.00 | 0.00 | 73 | 1015.4 |
| 20260505083820 | 60 | 99 | 1.7 | 2.6 | 0.00 | 0.00 | 0.00 | 72 | 1015.4 |
| 20260505083318 | 60 | 130 | 0.9 | 2.6 | 0.00 | 0.00 | 0.00 | 71 | 1015.2 |
| 20260505082814 | 60 | 130 | 1.7 | 2.6 | 0.00 | 0.00 | 0.00 | 71 | 1015.3 |
| 20260505082311 | 60 | 152 | 1.7 | 1.7 | 0.00 | 0.00 | 0.00 | 71 | 1015.4 |
| 20260505081807 | 60 | 131 | 0.9 | 2.6 | 0.00 | 0.00 | 0.00 | 71 | 1015.2 |
| 20260505081304 | 60 | 127 | 2.6 | 2.6 | 0.00 | 0.00 | 0.00 | 70 | 1015.1 |
| 20260505080801 | 60 | 156 | 1.7 | 1.7 | 0.00 | 0.00 | 0.00 | 70 | 1015.0 |
| 20260505080256 | 60 | 102 | 1.7 | 2.6 | 0.00 | 0.00 | 0.00 | 70 | 1015.2 |
| 20260505075752 | 60 | 118 | 1.7 | 1.7 | 0.00 | 0.00 | 0.00 | 69 | 1015.2 |
| 20260505075249 | 59 | 151 | 1.7 | 1.7 | 0.00 | 0.00 | 0.00 | 70 | 1015.2 |
| 20260505074747 | 59 | 127 | 1.7 | 1.7 | 0.00 | 0.00 | 0.00 | 69 | 1014.9 |
| 20260505074244 | 60 | 161 | 1.7 | 2.6 | 0.00 | 0.00 | 0.00 | 68 | 1015.0 |
| 20260505073741 | 60 | 149 | 0.9 | 2.6 | 0.00 | 0.00 | 0.00 | 68 | 1015.0 |
| 20260505073239 | 60 | 154 | 1.7 | 2.6 | 0.00 | 0.00 | 0.00 | 67 | 1015.0 |
| 20260505072735 | 60 | 153 | 1.7 | 2.6 | 0.00 | 0.00 | 0.00 | 67 | 1014.9 |
| 20260505072231 | 60 | 148 | 1.7 | 1.7 | 0.00 | 0.00 | 0.00 | 66 | 1014.8 |
| 20260505071727 | 60 | 145 | 0.9 | 1.7 | 0.00 | 0.00 | 0.00 | 66 | 1014.8 |
| 20260505071224 | 60 | 128 | 0.9 | 2.6 | 0.00 | 0.00 | 0.00 | 65 | 1014.9 |
| 20260505070716 | 60 | 155 | 1.7 | 1.7 | 0.00 | 0.00 | 0.00 | 66 | 1014.8 |
| 20260505070212 | 60 | 147 | 1.7 | 1.7 | 0.00 | 0.00 | 0.00 | 65 | 1014.7 |
| 20260505065708 | 60 | 159 | 1.7 | 1.7 | 0.00 | 0.00 | 0.00 | 66 | 1014.9 |
| 20260505065205 | 61 | 141 | 1.7 | 2.6 | 0.00 | 0.00 | 0.00 | 64 | 1014.7 |
| 20260505064702 | 61 | 145 | 1.7 | 1.7 | 0.00 | 0.00 | 0.00 | 63 | 1015.1 |
| 20260505064200 | 61 | 126 | 1.7 | 1.7 | 0.00 | 0.00 | 0.00 | 62 | 1014.9 |
| 20260505063657 | 61 | 149 | 0.9 | 1.7 | 0.00 | 0.00 | 0.00 | 62 | 1014.7 |
| 20260505063153 | 61 | 133 | 1.7 | 2.6 | 0.00 | 0.00 | 0.00 | 63 | 1014.8 |
| 20260505062649 | 61 | 145 | 2.6 | 2.6 | 0.00 | 0.00 | 0.00 | 61 | 1014.7 |
| 20260505062147 | 61 | 139 | 1.7 | 1.7 | 0.00 | 0.00 | 0.00 | 61 | 1014.7 |
| 20260505061644 | 61 | 159 | 1.7 | 1.7 | 0.00 | 0.00 | 0.00 | 61 | 1014.8 |
| 20260505061143 | 62 | 112 | 0.9 | 2.6 | 0.00 | 0.00 | 0.00 | 60 | 1014.7 |
| 20260505060640 | 62 | 121 | 0.9 | 2.6 | 0.00 | 0.00 | 0.00 | 59 | 1014.7 |
| 20260505060136 | 62 | 126 | 0.9 | 2.6 | 0.00 | 0.00 | 0.00 | 58 | 1014.8 |
| 20260505055631 | 62 | 137 | 1.7 | 1.7 | 0.00 | 0.00 | 0.00 | 58 | 1014.7 |
| 20260505055128 | 62 | 162 | 1.7 | 2.6 | 0.00 | 0.00 | 0.00 | 58 | 1014.6 |
| 20260505054626 | 62 | 119 | 0.0 | 1.7 | 0.00 | 0.00 | 0.00 | 57 | 1014.8 |
| 20260505054124 | 63 | 160 | 0.9 | 2.6 | 0.00 | 0.00 | 0.00 | 57 | 1014.5 |
| 20260505053620 | 63 | 43 | 0.0 | 2.6 | 0.00 | 0.00 | 0.00 | 56 | 1014.8 |
| 20260505053116 | 63 | 156 | 1.7 | 2.6 | 0.00 | 0.00 | 0.00 | 57 | 1014.7 |
| 20260505052614 | 63 | 108 | 1.7 | 1.7 | 0.00 | 0.00 | 0.00 | 54 | 1014.7 |
| 20260505052112 | 64 | 143 | 0.9 | 1.7 | 0.00 | 0.00 | 0.00 | 54 | 1014.7 |
| 20260505051608 | 64 | 103 | 0.9 | 1.7 | 0.00 | 0.00 | 0.00 | 53 | 1014.7 |
| 20260505051107 | 64 | 111 | 1.7 | 1.7 | 0.00 | 0.00 | 0.00 | 53 | 1014.7 |
| 20260505050604 | 64 | 133 | 0.9 | 2.6 | 0.00 | 0.00 | 0.00 | 55 | 1014.5 |
| 20260505041532 | 61 | 138 | 1.7 | 1.7 | 0.00 | 0.00 | 0.00 | 63 | 1014.0 |
| 20260505041029 | 61 | 140 | 0.9 | 1.7 | 0.00 | 0.00 | 0.00 | 63 | 1014.2 |
| 20260505040526 | 61 | 150 | 1.7 | 1.7 | 0.00 | 0.00 | 0.00 | 64 | 1014.2 |
| 20260505040024 | 61 | 149 | 1.7 | 2.6 | 0.00 | 0.00 | 0.00 | 61 | 1013.9 |
| 20260505035520 | 61 | 138 | 1.7 | 1.7 | 0.00 | 0.00 | 0.00 | 60 | 1014.0 |
| 20260505035017 | 61 | 154 | 1.7 | 1.7 | 0.00 | 0.00 | 0.00 | 59 | 1014.1 |
| 20260505034513 | 61 | 164 | 1.7 | 2.6 | 0.00 | 0.00 | 0.00 | 60 | 1013.9 |
| 20260505034010 | 61 | 171 | 1.7 | 2.6 | 0.00 | 0.00 | 0.00 | 62 | 1014.1 |
| 20260505033507 | 61 | 138 | 1.7 | 1.7 | 0.00 | 0.00 | 0.00 | 65 | 1014.1 |
| 20260505033005 | 62 | 166 | 1.7 | 1.7 | 0.00 | 0.00 | 0.00 | 69 | 1014.1 |
| 20260505032502 | 62 | 159 | 1.7 | 2.6 | 0.00 | 0.00 | 0.00 | 66 | 1014.0 |
| 20260505031959 | 62 | 149 | 1.7 | 1.7 | 0.00 | 0.00 | 0.00 | 61 | 1014.2 |
| 20260505031455 | 62 | 148 | 1.7 | 2.6 | 0.00 | 0.00 | 0.00 | 57 | 1014.3 |
| 20260505030952 | 62 | 154 | 1.7 | 1.7 | 0.00 | 0.00 | 0.00 | 58 | 1013.9 |
| 20260505030449 | 62 | 157 | 1.7 | 2.6 | 0.00 | 0.00 | 0.00 | 59 | 1014.2 |
| 20260505025944 | 62 | 143 | 1.7 | 1.7 | 0.00 | 0.00 | 0.00 | 58 | 1014.2 |
| 20260505025441 | 63 | 168 | 1.7 | 1.7 | 0.00 | 0.00 | 0.00 | 60 | 1014.3 |
| 20260505024940 | 63 | 155 | 0.9 | 1.7 | 0.00 | 0.00 | 0.00 | 61 | 1014.2 |